Weather observations for the past three days for
Concord Regional Airport
Imperial (Metric)
Date Time (edt) Wind (mph) Vis. (mi.) Weather Sky Cond. Temperature (ºF) Relative Humidity Wind Chill (°F) Heat Index (°F) Pressure Precipitation (in)
Air Dwpt 6 hour altimeter (in) sea level (mb) 1 hr 3 hr 6 hr
Max. Min.
16 05:45 SW 3 10.00 Overcast OVC110 77 69.8 79% 79 30.01 0.0
16 05:25 Calm 10.00 Mostly Cloudy BKN100 77 69.8 79% 79 30.01 0.0
16 05:05 Calm 10.00 Fair CLR 77 69.8 79% 79 30 0.0
16 04:45 Calm 10.00 Fair CLR 77 69.8 79% 79 30 0.0
16 04:25 SW 3 10.00 Fair CLR 77 69.8 79% 79 30 0.0
16 04:05 SW 3 10.00 Fair CLR 77 69.8 79% 79 30 0.0
16 03:45 S 3 10.00 Fair CLR 75.2 68 78% 76 29.99 0.0
16 03:25 Calm 10.00 Fair CLR 77 68 74% 79 29.99 0.0
16 03:05 Calm 10.00 Fair CLR 77 68 74% 79 29.98 0.0
16 02:45 SW 5 10.00 Fair CLR 78.8 68 70% 81 29.98 0.0
16 02:25 SW 5 10.00 Fair CLR 77 68 74% 79 29.98 0.0
16 02:05 Calm 10.00 Fair CLR 78.8 68 70% 81 29.98 0.0
16 01:45 SW 5 10.00 Fair CLR 78.8 68 70% 81 29.97 0.0
16 01:25 Calm 10.00 Fair CLR 78.8 66.2 65% 81 29.97 0.0
16 01:05 S 5 10.00 Fair CLR 78.8 66.2 65% 81 29.98 0.0
16 00:45 SW 8 10.00 Fair CLR 80.6 64.4 58% 82 29.99 0.0
16 00:25 S 8 10.00 Fair CLR 80.6 64.4 58% 82 30.01 0.0
16 00:05 S 8 10.00 Fair CLR 80.6 62.6 54% 82 30.01 0.0
15 20:59 Calm 10.00 Fair CLR 87.8 69.8 55% 93 30.01 0.0
15 19:50 Calm 10.00 Mostly Cloudy BKN110 89.6 69.8 52% 95 29.99 0.0
15 18:50 Calm 10.00 Partly Cloudy SCT050 91.4 66.2 44% 94 29.97 0.0
15 17:50 S 3 10.00 Partly Cloudy SCT070 SCT090 91.4 64.4 41% 93 29.97 0.0
15 16:50 S 6 10.00 Fair CLR 91.4 66.2 44% 94 29.99 0.0
15 15:50 S 5 G 21 10.00 Fair CLR 95 62.6 34% 96 30 0.0
15 14:50 S 16 G 21 10.00 Mostly Cloudy BKN080 91.4 64.4 41% 93 30.03 0.0
15 13:10 Calm 10.00 Partly Cloudy SCT070 96.8 60.8 30% 97 30.05 0.0
15 11:50 Calm 10.00 Fair CLR 95 64.4 36% 97 30.07 0.0
15 10:50 Calm 10.00 Fair CLR 89.6 68 49% 93 30.08 0.0
15 09:50 Calm 10.00 Fair CLR 84.2 71.6 66% 90 30.1 0.0
15 08:55 N 3 10.00 Fair CLR 82.4 71.6 70% 87 30.1 0.0
15 08:00 Calm 10.00 Fair CLR 80.6 71.6 74% 85 30.09 0.0
15 07:05 SW 3 10.00 Fair CLR 77 71.6 83% 78 30.07 0.0
15 06:45 Calm 10.00 Fair CLR 75.2 69.8 83% 75 30.06 0.0
15 06:25 Calm 10.00 Fair CLR 73.4 69.8 89% 30.06 0.0
15 06:05 Calm 10.00 Fair CLR 73.4 69.8 89% 30.06 0.0
15 05:45 Calm 10.00 Fair CLR 73.4 69.8 89% 30.06 0.0
15 05:25 Calm 10.00 Fair CLR 78.8 69.8 74% 81 30.05 0.0
15 05:05 SW 3 10.00 Fair CLR 78.8 69.8 74% 81 30.05 0.0
15 04:45 Calm 10.00 Fair CLR 75.2 68 78% 76 30.05 0.0
15 04:25 Calm 10.00 Fair CLR 77 68 74% 79 30.04 0.0
15 04:05 Calm 10.00 Fair CLR 78.8 68 70% 81 30.03 0.0
15 03:45 Calm 10.00 Fair CLR 77 68 74% 79 30.03 0.0
15 03:25 Calm 10.00 Fair CLR 77 68 74% 79 30.03 0.0
15 03:05 Calm 10.00 Fair CLR 77 68 74% 79 30.03 0.0
15 02:45 Calm 10.00 Fair CLR 78.8 68 70% 81 30.04 0.0
15 02:25 Calm 10.00 Fair CLR 78.8 68 70% 81 30.05 0.0
15 02:05 S 5 10.00 Fair CLR 78.8 68 70% 81 30.06 0.0
15 01:45 Calm 10.00 Fair CLR 78.8 68 70% 81 30.07 0.0
15 01:25 S 3 10.00 Fair CLR 78.8 68 70% 81 30.07 0.0
15 01:05 Calm 10.00 Fair CLR 78.8 68 70% 81 30.07 0.0
15 00:45 Calm 10.00 Fair CLR 80.6 68 66% 83 30.07 0.0
15 00:25 Calm 10.00 Fair CLR 80.6 68 66% 83 30.07 0.0
15 00:05 Calm 10.00 Fair CLR 78.8 68 70% 81 30.08 0.0
14 22:50 Calm 10.00 Fair CLR 82.4 71.6 70% 87 30.08 0.0
14 21:50 Calm 10.00 Fair CLR 84.2 69.8 62% 88 30.08 0.0
14 20:50 Calm 10.00 Fair CLR 87.8 69.8 55% 93 30.07 0.0
14 19:50 SE 5 10.00 Fair CLR 91.4 69.8 49% 97 30.07 0.0
14 18:50 SE 6 10.00 Fair CLR 91.4 68 46% 96 30.06 0.0
14 17:50 S 9 G 17 10.00 Fair CLR 93.2 66.2 41% 96 30.06 0.0
14 16:50 S 9 G 20 10.00 Fair CLR 91.4 69.8 49% 97 30.08 0.0
14 15:50 S 9 G 18 10.00 Fair CLR 93.2 66.2 41% 96 30.09 0.0
14 14:50 E 7 G 17 10.00 Partly Cloudy SCT070 SCT095 91.4 66.2 44% 94 30.1 0.0
14 11:50 Calm 10.00 Fair CLR 93.2 66.2 41% 96 30.16 0.0
14 10:50 Calm 10.00 Fair CLR 91.4 68 46% 96 30.16 0.0
14 09:50 Calm 10.00 Fair CLR 89.6 69.8 52% 95 30.17 0.0
14 08:50 Calm 10.00 Fair CLR 82.4 71.6 70% 87 30.18 0.0
14 07:50 Calm 10.00 Fair CLR 80.6 71.6 74% 85 30.17 0.0
14 06:50 Calm 10.00 Fair CLR 73.4 71.6 94% 30.16 0.0
14 06:45 Calm 10.00 Fair CLR 73.4 69.8 89% 30.16 0.0
14 06:25 Calm 10.00 Fair CLR 71.6 69.8 94% 30.16 0.0
14 06:05 Calm 10.00 Fair CLR 71.6 68 88% 30.16 0.0
14 05:45 Calm 10.00 Fair CLR 71.6 69.8 94% 30.15 0.0
14 05:25 Calm 10.00 Fair CLR 71.6 69.8 94% 30.15 0.0
14 05:05 Calm 10.00 Fair CLR 73.4 69.8 89% 30.15 0.0
14 04:45 Calm 10.00 Fair CLR 73.4 69.8 89% 30.15 0.0
14 04:25 Calm 10.00 Fair CLR 71.6 69.8 94% 30.15 0.0
14 04:05 Calm 10.00 Fair CLR 73.4 69.8 89% 30.15 0.0
14 03:45 Calm 10.00 Fair CLR 73.4 69.8 89% 30.15 0.0
14 03:25 Calm 10.00 Fair CLR 73.4 69.8 89% 30.16 0.0
14 03:05 Calm 10.00 Fair CLR 73.4 69.8 89% 30.16 0.0
14 02:45 Calm 10.00 Fair CLR 75.2 69.8 83% 75 30.16 0.0
14 02:25 Calm 10.00 Fair CLR 75.2 69.8 83% 75 30.16 0.0
14 02:05 Calm 10.00 Fair CLR 75.2 69.8 83% 75 30.17 0.0
14 01:45 Calm 10.00 Fair CLR 77 69.8 79% 79 30.17 0.0
14 01:25 Calm 10.00 Fair CLR 77 69.8 79% 79 30.18 0.0
14 01:05 Calm 10.00 Fair CLR 78.8 69.8 74% 81 30.18 0.0
14 00:45 Calm 10.00 Fair CLR 77 69.8 79% 79 30.18 0.0
14 00:25 Calm 10.00 Fair CLR 78.8 69.8 74% 81 30.18 0.0
14 00:05 Calm 10.00 Fair CLR 80.6 69.8 70% 84 30.18 0.0
13 22:50 Calm 10.00 Fair CLR 82.4 71.6 70% 87 30.18 0.0
13 21:50 Calm 10.00 Fair CLR 82.4 69.8 66% 86 30.18 0.0
13 20:50 Calm 10.00 Fair CLR 87.8 69.8 55% 93 30.17 0.0
13 19:50 SE 3 10.00 Fair CLR 89.6 69.8 52% 95 30.16 0.0
13 17:50 Calm 10.00 A Few Clouds FEW060 91.4 69.8 49% 97 30.16 0.0
13 16:50 Calm 10.00 Partly Cloudy SCT060 93.2 64.4 39% 95 30.15 0.0
13 14:55 NE 3 10.00 Partly Cloudy SCT060 93.2 66.2 41% 96 30.18 0.0
13 13:50 Calm 10.00 Partly Cloudy SCT046 89.6 68 49% 93 30.2 0.0
13 12:50 Calm 10.00 Partly Cloudy SCT028 87.8 68 52% 91 30.22 0.0
13 10:50 N 5 10.00 Partly Cloudy SCT013 82.4 69.8 66% 86 30.23 0.0
13 09:50 N 9 10.00 Partly Cloudy SCT010 80.6 69.8 70% 84 30.25 0.0
13 08:50 Calm 10.00 Mostly Cloudy BKN008 75.2 69.8 83% 75 30.25 0.0
13 07:50 Calm 10.00 Overcast OVC006 73.4 69.8 89% 30.23 0.0
13 06:50 N 5 10.00 Overcast OVC006 71.6 69.8 94% 30.21 0.0
13 06:45 N 3 10.00 Overcast OVC006 71.6 69.8 94% 30.21 0.0
13 06:25 N 3 10.00 Overcast OVC006 71.6 69.8 94% 30.2 0.0
13 06:05 N 6 10.00 Overcast OVC006 71.6 69.8 94% 30.19 0.0
Date Time (edt) Wind (mph) Vis. (mi.) Weather Sky Cond. Air Dwpt Max. Min. Relative Humidity Wind Chill (°F) Heat Index (°F) altimeter (in) sea level (mb) 1 hr 3 hr 6 hr
6 hour
Temperature (ºF) Pressure Precipitation (in)